Time,TemperatureF,DewpointF,PressureIn,WindDirection,WindDirectionDegrees,WindSpeedMPH,WindSpeedGustMPH,Humidity,HourlyPrecipIn,Conditions,Clouds,dailyrainin,SoftwareType,DateUTC
2013-06-25 00:04:00,71.9,69.0,30.08,WSW,254,3.0,5.0,90,0.00,,,0.00,weatherlink.com 1.10,2013-06-25 04:04:00,
2013-06-25 00:19:00,71.6,69.0,30.07,SSW,201,2.0,5.0,91,0.00,,,0.00,weatherlink.com 1.10,2013-06-25 04:19:00,
2013-06-25 00:35:00,71.3,69.0,30.07,SSW,192,0.0,5.0,91,0.00,,,0.00,weatherlink.com 1.10,2013-06-25 04:35:00,
2013-06-25 00:49:00,71.0,68.0,30.07,WSW,242,0.0,5.0,91,0.00,,,0.00,weatherlink.com 1.10,2013-06-25 04:49:00,
2013-06-25 01:04:00,70.8,68.0,30.07,SW,221,0.0,2.0,91,0.00,,,0.00,weatherlink.com 1.10,2013-06-25 05:04:00,
2013-06-25 01:19:00,70.5,68.0,30.07,SW,221,0.0,3.0,92,0.00,,,0.00,weatherlink.com 1.10,2013-06-25 05:19:00,
2013-06-25 01:34:00,70.2,68.0,30.07,SSW,207,1.0,3.0,92,0.00,,,0.00,weatherlink.com 1.10,2013-06-25 05:34:00,
2013-06-25 01:49:00,69.9,68.0,30.07,SW,214,0.0,3.0,92,0.00,,,0.00,weatherlink.com 1.10,2013-06-25 05:49:00,
2013-06-25 02:04:00,69.7,68.0,30.07,SSW,200,0.0,4.0,93,0.00,,,0.00,weatherlink.com 1.10,2013-06-25 06:04:00,
2013-06-25 02:19:00,69.5,68.0,30.07,SSW,200,0.0,2.0,93,0.00,,,0.00,weatherlink.com 1.10,2013-06-25 06:19:00,
2013-06-25 02:34:00,69.3,67.0,30.06,SW,227,0.0,2.0,93,0.00,,,0.00,weatherlink.com 1.10,2013-06-25 06:34:00,
2013-06-25 02:49:00,69.2,67.0,30.06,SW,215,0.0,4.0,93,0.00,,,0.00,weatherlink.com 1.10,2013-06-25 06:49:00,
2013-06-25 03:04:00,69.1,67.0,30.06,SW,220,0.0,3.0,94,0.00,,,0.00,weatherlink.com 1.10,2013-06-25 07:04:00,
2013-06-25 03:19:00,69.1,67.0,30.06,SSW,211,2.0,5.0,94,0.00,,,0.00,weatherlink.com 1.10,2013-06-25 07:19:00,
2013-06-25 03:34:00,69.0,67.0,30.06,SW,219,0.0,4.0,94,0.00,,,0.00,weatherlink.com 1.10,2013-06-25 07:34:00,
2013-06-25 03:49:00,68.9,67.0,30.06,SW,234,1.0,3.0,94,0.00,,,0.00,weatherlink.com 1.10,2013-06-25 07:49:00,
2013-06-25 04:04:00,68.7,67.0,30.05,SSW,209,0.0,3.0,94,0.00,,,0.00,weatherlink.com 1.10,2013-06-25 08:04:00,
2013-06-25 04:19:00,68.7,67.0,30.05,SSW,204,0.0,4.0,94,0.00,,,0.00,weatherlink.com 1.10,2013-06-25 08:19:00,
2013-06-25 04:34:00,68.5,67.0,30.05,SSW,205,0.0,4.0,95,0.00,,,0.00,weatherlink.com 1.10,2013-06-25 08:34:00,
2013-06-25 04:49:00,68.4,67.0,30.05,South,180,2.0,3.0,95,0.00,,,0.00,weatherlink.com 1.10,2013-06-25 08:49:00,
2013-06-25 05:04:00,68.2,67.0,30.05,South,173,0.0,4.0,95,0.00,,,0.00,weatherlink.com 1.10,2013-06-25 09:04:00,
2013-06-25 05:19:00,68.2,67.0,30.05,SSW,207,0.0,7.0,95,0.00,,,0.00,weatherlink.com 1.10,2013-06-25 09:19:00,
2013-06-25 05:34:00,68.2,67.0,30.05,SSW,194,0.0,7.0,95,0.00,,,0.00,weatherlink.com 1.10,2013-06-25 09:34:00,
2013-06-25 05:49:00,68.4,67.0,30.05,SW,227,1.0,10.0,96,0.00,,,0.00,weatherlink.com 1.10,2013-06-25 09:49:00,
2013-06-25 06:04:00,68.6,68.0,30.05,SW,219,4.0,11.0,96,0.00,,,0.00,weatherlink.com 1.10,2013-06-25 10:04:00,
2013-06-25 06:19:00,68.8,68.0,30.05,SW,225,2.0,8.0,96,0.00,,,0.00,weatherlink.com 1.10,2013-06-25 10:19:00,
2013-06-25 06:34:00,68.9,68.0,30.05,WNW,290,0.0,6.0,96,0.00,,,0.00,weatherlink.com 1.10,2013-06-25 10:34:00,
2013-06-25 06:49:00,69.0,68.0,30.05,West,271,1.0,9.0,96,0.00,,,0.00,weatherlink.com 1.10,2013-06-25 10:49:00,
2013-06-25 07:04:00,69.1,68.0,30.05,SW,219,0.0,7.0,96,0.00,,,0.00,weatherlink.com 1.10,2013-06-25 11:04:00,
2013-06-25 07:19:00,69.2,68.0,30.04,SW,220,2.0,7.0,96,0.00,,,0.00,weatherlink.com 1.10,2013-06-25 11:19:00,
2013-06-25 07:34:00,69.5,69.0,30.04,SSW,207,2.0,10.0,97,0.00,,,0.00,weatherlink.com 1.10,2013-06-25 11:34:00,
2013-06-25 07:49:00,69.6,69.0,30.04,WSW,242,1.0,6.0,96,0.00,,,0.00,weatherlink.com 1.10,2013-06-25 11:49:00,
2013-06-25 08:04:00,69.8,69.0,30.05,West,265,1.0,9.0,96,0.00,,,0.00,weatherlink.com 1.10,2013-06-25 12:04:00,
2013-06-25 08:19:00,70.1,69.0,30.05,SW,217,2.0,9.0,97,0.00,,,0.00,weatherlink.com 1.10,2013-06-25 12:19:00,
2013-06-25 08:34:00,70.6,70.0,30.05,WNW,296,1.0,6.0,96,0.00,,,0.00,weatherlink.com 1.10,2013-06-25 12:34:00,
2013-06-25 08:49:00,71.1,70.0,30.06,WSW,237,3.0,9.0,96,0.00,,,0.00,weatherlink.com 1.10,2013-06-25 12:49:00,
2013-06-25 09:04:00,71.7,70.0,30.06,WNW,286,4.0,9.0,95,0.00,,,0.00,weatherlink.com 1.10,2013-06-25 13:04:00,
2013-06-25 09:19:00,72.4,71.0,30.06,SW,234,2.0,10.0,95,0.00,,,0.00,weatherlink.com 1.10,2013-06-25 13:19:00,
2013-06-25 09:35:00,73.1,71.0,30.06,SW,219,5.0,8.0,93,0.00,,,0.00,weatherlink.com 1.10,2013-06-25 13:35:00,
2013-06-25 09:50:00,73.8,72.0,30.06,WSW,257,4.0,9.0,93,0.00,,,0.00,weatherlink.com 1.10,2013-06-25 13:50:00,
2013-06-25 10:05:00,74.7,72.0,30.06,SSW,213,0.0,9.0,92,0.00,,,0.00,weatherlink.com 1.10,2013-06-25 14:05:00,
2013-06-25 10:20:00,75.7,73.0,30.06,SW,234,0.0,8.0,91,0.00,,,0.00,weatherlink.com 1.10,2013-06-25 14:20:00,
2013-06-25 10:35:00,76.6,74.0,30.06,West,266,3.0,5.0,91,0.00,,,0.00,weatherlink.com 1.10,2013-06-25 14:35:00,
2013-06-25 10:50:00,77.7,74.0,30.06,WSW,243,2.0,5.0,88,0.00,,,0.00,weatherlink.com 1.10,2013-06-25 14:50:00,
2013-06-25 11:05:00,79.1,75.0,30.07,WSW,242,3.0,7.0,86,0.00,,,0.00,weatherlink.com 1.10,2013-06-25 15:05:00,
2013-06-25 11:20:00,80.5,75.0,30.06,NW,312,3.0,8.0,83,0.00,,,0.00,weatherlink.com 1.10,2013-06-25 15:20:00,
2013-06-25 11:35:00,80.8,75.0,30.06,WSW,244,0.0,8.0,82,0.00,,,0.00,weatherlink.com 1.10,2013-06-25 15:35:00,
2013-06-25 11:50:00,80.8,75.0,30.06,West,280,2.0,7.0,83,0.00,,,0.00,weatherlink.com 1.10,2013-06-25 15:50:00,
2013-06-25 12:05:00,80.5,75.0,30.06,West,267,1.0,6.0,84,0.00,,,0.00,weatherlink.com 1.10,2013-06-25 16:05:00,
2013-06-25 12:20:00,82.5,75.0,30.06,SSW,209,0.0,4.0,79,0.00,,,0.00,weatherlink.com 1.10,2013-06-25 16:20:00,
2013-06-25 12:35:00,81.9,76.0,30.06,SW,219,0.0,6.0,81,0.00,,,0.00,weatherlink.com 1.10,2013-06-25 16:35:00,
2013-06-25 12:50:00,83.9,77.0,30.06,West,273,5.0,6.0,79,0.00,,,0.00,weatherlink.com 1.10,2013-06-25 16:50:00,
2013-06-25 13:05:00,83.0,75.0,30.05,SW,236,0.0,3.0,77,0.00,,,0.00,weatherlink.com 1.10,2013-06-25 17:05:00,
2013-06-25 13:20:00,84.1,76.0,30.03,South,182,1.0,4.0,76,0.00,,,0.00,weatherlink.com 1.10,2013-06-25 17:20:00,
2013-06-25 13:35:00,87.0,77.0,30.03,SW,219,0.0,5.0,73,0.00,,,0.00,weatherlink.com 1.10,2013-06-25 17:35:00,
2013-06-25 13:50:00,84.2,75.0,30.02,WSW,239,0.0,6.0,74,0.00,,,0.00,weatherlink.com 1.10,2013-06-25 17:50:00,
2013-06-25 14:05:00,85.1,76.0,30.02,West,279,0.0,4.0,75,0.00,,,0.00,weatherlink.com 1.10,2013-06-25 18:05:00,
2013-06-25 14:20:00,87.4,77.0,30.01,SSW,209,0.0,6.0,72,0.00,,,0.00,weatherlink.com 1.10,2013-06-25 18:20:00,
2013-06-25 14:35:00,86.6,77.0,30.00,SW,221,6.0,8.0,73,0.00,,,0.00,weatherlink.com 1.10,2013-06-25 18:35:00,
2013-06-25 14:50:00,86.0,74.0,30.00,WSW,247,1.0,6.0,68,0.00,,,0.00,weatherlink.com 1.10,2013-06-25 18:50:00,
2013-06-25 15:05:00,85.1,76.0,29.99,WNW,284,0.0,5.0,73,0.00,,,0.00,weatherlink.com 1.10,2013-06-25 19:05:00,
2013-06-25 15:20:00,84.6,76.0,29.98,North,360,0.0,3.0,74,0.00,,,0.00,weatherlink.com 1.10,2013-06-25 19:20:00,
2013-06-25 15:35:00,84.7,75.0,29.98,WSW,240,2.0,3.0,73,0.00,,,0.00,weatherlink.com 1.10,2013-06-25 19:35:00,
2013-06-25 15:50:00,85.3,75.0,29.98,NW,321,0.0,5.0,71,0.00,,,0.00,weatherlink.com 1.10,2013-06-25 19:50:00,
2013-06-25 16:05:00,83.5,74.0,29.99,WSW,248,0.0,3.0,73,0.00,,,0.00,weatherlink.com 1.10,2013-06-25 20:05:00,
2013-06-25 16:20:00,83.9,76.0,29.98,WSW,240,2.0,6.0,76,0.00,,,0.00,weatherlink.com 1.10,2013-06-25 20:20:00,
2013-06-25 16:35:00,84.8,74.0,29.98,SW,236,3.0,6.0,71,0.00,,,0.00,weatherlink.com 1.10,2013-06-25 20:35:00,
2013-06-25 16:50:00,84.4,74.0,29.98,West,261,1.0,10.0,72,0.00,,,0.00,weatherlink.com 1.10,2013-06-25 20:50:00,
2013-06-25 17:05:00,84.5,75.0,29.97,SW,218,1.0,5.0,72,0.00,,,0.00,weatherlink.com 1.10,2013-06-25 21:05:00,
2013-06-25 17:20:00,83.8,75.0,29.97,South,170,0.0,6.0,75,0.00,,,0.00,weatherlink.com 1.10,2013-06-25 21:20:00,
2013-06-25 17:35:00,84.4,77.0,29.97,SSW,192,2.0,8.0,77,0.00,,,0.00,weatherlink.com 1.10,2013-06-25 21:35:00,
2013-06-25 17:50:00,83.2,76.0,29.97,SW,219,2.0,11.0,78,0.00,,,0.00,weatherlink.com 1.10,2013-06-25 21:50:00,
2013-06-25 18:06:00,81.5,75.0,29.96,South,190,0.0,6.0,81,0.00,,,0.00,weatherlink.com 1.10,2013-06-25 22:06:00,
2013-06-25 18:21:00,80.2,75.0,29.97,SSW,205,2.0,8.0,84,0.00,,,0.00,weatherlink.com 1.10,2013-06-25 22:21:00,
2013-06-25 18:36:00,79.5,73.0,29.97,West,271,1.0,7.0,81,0.00,,,0.00,weatherlink.com 1.10,2013-06-25 22:36:00,
2013-06-25 18:51:00,78.8,72.0,29.96,WNW,287,5.0,10.0,80,0.00,,,0.00,weatherlink.com 1.10,2013-06-25 22:51:00,
2013-06-25 19:06:00,78.1,72.0,29.96,WSW,252,0.0,4.0,81,0.00,,,0.00,weatherlink.com 1.10,2013-06-25 23:06:00,
2013-06-25 19:21:00,77.4,71.0,29.96,WSW,253,0.0,4.0,81,0.00,,,0.00,weatherlink.com 1.10,2013-06-25 23:21:00,
2013-06-25 19:36:00,76.7,72.0,29.96,SSW,207,0.0,4.0,85,0.00,,,0.00,weatherlink.com 1.10,2013-06-25 23:36:00,
2013-06-25 19:51:00,76.4,72.0,29.96,SSW,206,1.0,3.0,86,0.00,,,0.00,weatherlink.com 1.10,2013-06-25 23:51:00,
2013-06-25 20:06:00,76.0,72.0,29.96,WSW,241,0.0,5.0,87,0.00,,,0.00,weatherlink.com 1.10,2013-06-26 00:06:00,
2013-06-25 20:21:00,75.2,72.0,29.96,SSE,153,0.0,5.0,88,0.00,,,0.00,weatherlink.com 1.10,2013-06-26 00:21:00,
2013-06-25 20:36:00,74.5,71.0,29.97,SW,216,1.0,4.0,89,0.00,,,0.00,weatherlink.com 1.10,2013-06-26 00:36:00,
2013-06-25 20:51:00,74.0,71.0,29.97,SSW,199,0.0,2.0,89,0.00,,,0.00,weatherlink.com 1.10,2013-06-26 00:51:00,
2013-06-25 21:06:00,73.6,71.0,29.96,South,178,0.0,4.0,90,0.00,,,0.00,weatherlink.com 1.10,2013-06-26 01:06:00,
2013-06-25 21:21:00,72.9,70.0,29.96,SW,219,2.0,4.0,91,0.00,,,0.00,weatherlink.com 1.10,2013-06-26 01:21:00,
2013-06-25 21:36:00,72.7,70.0,29.97,SSW,209,0.0,4.0,92,0.00,,,0.00,weatherlink.com 1.10,2013-06-26 01:36:00,
2013-06-25 21:51:00,72.6,70.0,29.97,SSW,204,0.0,4.0,92,0.00,,,0.00,weatherlink.com 1.10,2013-06-26 01:51:00,
2013-06-25 22:06:00,72.4,70.0,29.98,SW,224,0.0,3.0,92,0.00,,,0.00,weatherlink.com 1.10,2013-06-26 02:06:00,
2013-06-25 22:21:00,72.4,70.0,29.98,SW,224,0.0,2.0,92,0.00,,,0.00,weatherlink.com 1.10,2013-06-26 02:21:00,
2013-06-25 22:36:00,72.4,70.0,29.98,SW,220,0.0,2.0,92,0.00,,,0.00,weatherlink.com 1.10,2013-06-26 02:36:00,
2013-06-25 22:51:00,72.4,70.0,29.99,SW,220,0.0,1.0,92,0.00,,,0.00,weatherlink.com 1.10,2013-06-26 02:51:00,
2013-06-25 23:06:00,72.2,70.0,29.99,SW,220,0.0,1.0,92,0.00,,,0.00,weatherlink.com 1.10,2013-06-26 03:06:00,
2013-06-25 23:21:00,72.1,70.0,29.99,SW,220,1.0,1.0,92,0.00,,,0.00,weatherlink.com 1.10,2013-06-26 03:21:00,
2013-06-25 23:36:00,72.0,70.0,29.99,WSW,239,0.0,5.0,92,0.00,,,0.00,weatherlink.com 1.10,2013-06-26 03:36:00,
2013-06-25 23:51:00,71.8,70.0,29.99,SSW,211,0.0,4.0,93,0.00,,,0.00,weatherlink.com 1.10,2013-06-26 03:51:00,